Carlsbad, CA

3:28 AM PST on December 10, 2016 (GMT -0800)
McClellan-Palomar

Weather History for KCRQ - October, 2013

Change the Weather History Date:

Thursday, October 17, 2013

  Actual Average Record
Temperature  
Mean Temperature 70 °F -  
Max Temperature 80 °F 70 °F 93 °F (2012)
Min Temperature 60 °F 55 °F 48 °F (2000)
Cooling Degree Days 4    
Growing Degree Days 20 (Base 50)    
Moisture  
Dew Point 39 °F    
Average Humidity 40    
Maximum Humidity 75    
Minimum Humidity 14    
Precipitation  
Precipitation 0.00 in - - ()
Sea Level Pressure  
Sea Level Pressure 29.97 in    
Wind  
Wind Speed 2 mph (West)    
Max Wind Speed 8 mph    
Max Gust Speed -    
Visibility 10 miles    
Events      
Averages and records for this station are not official NWS values.
T = Trace of Precipitation, MM = Missing Value Source: NWS Daily Summary

Daily Weather History Graph

Daily Weather History Graph

Search for Another Location

Airport or City:

Trip Planner

Search our weather history database for the weather conditions in past years. The results will help you decide how hot, cold, wet, or windy it might be!

Date:

Astronomy

Oct. 17, 2013 Rise Set
Actual Time 6:55 AM PDT 6:12 PM PDT
Civil Twilight 6:30 AM PDT 6:37 PM PDT
Nautical Twilight 6:01 AM PDT 7:06 PM PDT
Astronomical Twilight 5:32 AM PDT 7:35 PM PDT
Moon 5:28 PM PDT (10/17) 5:35 AM PDT (10/17)
Length of Visible Light 12h 07m
Length of Day
11h 17m
Waxing Gibbous, 98% of the Moon is Illuminated
Oct 17
Waxing Gibbous
Oct 18
Full
Oct 26
Last Quarter
Nov 3
New
Nov 9
First Quarter

Hourly Weather History & Observations

Time (PDT) Temp. Dew Point Humidity Pressure Visibility Wind Dir Wind Speed Gust Speed Precip Events Conditions
12:53 AM 63.0 °F 32.0 °F 31% 29.99 in 10.0 mi Calm Calm - N/A   Clear
1:53 AM 62.1 °F 30.9 °F 31% 30.00 in 10.0 mi Calm Calm - N/A   Clear
2:53 AM 60.1 °F 32.0 °F 35% 29.99 in 10.0 mi Calm Calm - N/A   Clear
3:53 AM 61.0 °F 30.0 °F 31% 29.98 in 10.0 mi East 3.5 mph - N/A   Clear
4:53 AM 61.0 °F 30.0 °F 31% 29.99 in 3.0 mi ENE 4.6 mph - N/A   Haze
5:53 AM 62.1 °F 28.9 °F 29% 29.99 in 10.0 mi ENE 4.6 mph - N/A   Clear
6:53 AM 60.1 °F 28.9 °F 31% 30.00 in 10.0 mi East 3.5 mph - N/A   Clear
7:53 AM 64.0 °F 30.0 °F 28% 30.01 in 10.0 mi Calm Calm - N/A   Clear
8:53 AM 71.1 °F 30.9 °F 23% 30.02 in 10.0 mi Calm Calm - N/A   Clear
9:53 AM 73.9 °F 28.9 °F 19% 30.02 in 10.0 mi Calm Calm - N/A   Clear
10:53 AM 77.0 °F 30.9 °F 19% 30.01 in 10.0 mi West 3.5 mph - N/A   Clear
11:53 AM 79.0 °F 25.0 °F 14% 29.99 in 10.0 mi West 5.8 mph - N/A   Clear
12:53 PM 77.0 °F 34.0 °F 21% 29.97 in 10.0 mi WSW 6.9 mph - N/A   Clear
1:53 PM 75.9 °F 37.9 °F 25% 29.95 in 10.0 mi West 8.1 mph - N/A   Clear
2:53 PM 75.0 °F 44.1 °F 33% 29.94 in 10.0 mi WSW 5.8 mph - N/A   Clear
3:53 PM 73.9 °F 44.1 °F 34% 29.93 in 10.0 mi Variable 6.9 mph - N/A   Clear
4:53 PM 72.0 °F 51.1 °F 48% 29.93 in 10.0 mi West 4.6 mph - N/A   Clear
5:53 PM 70.0 °F 52.0 °F 53% 29.92 in 10.0 mi West 4.6 mph - N/A   Clear
6:53 PM 68.0 °F 57.0 °F 68% 29.93 in 10.0 mi Calm Calm - N/A   Clear
7:53 PM 66.9 °F 57.9 °F 73% 29.94 in 10.0 mi Calm Calm - N/A   Clear
8:53 PM 64.0 °F 55.9 °F 75% 29.94 in 10.0 mi Calm Calm - N/A   Clear
9:53 PM 66.0 °F 55.0 °F 68% 29.95 in 10.0 mi Calm Calm - N/A   Clear
10:53 PM 62.1 °F 52.0 °F 70% 29.96 in 10.0 mi Calm Calm - N/A   Clear
11:53 PM 61.0 °F 46.9 °F 60% 29.95 in 10.0 mi Calm Calm - N/A   Clear